Terug naar catalogus

STARLINK-5460

ActiefCommunicatieVLEO
NORAD 55671·PAYLOAD·🇺🇸 United States

Gelanceerd Feb 17, 2023 vanaf Vandenberg Space Force Base

Loading…

Volgende Passages (komende 24 uur)

TLE

VersSource: CelesTrak SupGP

Epoch: Sep 15, 2026, 02:45 UTC

1 55671C 23021AV  26258.11506944 -.00034347  00000+0 -28785-2 0  2587
2 55671  70.0020  47.0465 0003102 270.3531  79.7214 14.98346336    16

Volg STARLINK-5460 in realtime met AllMySat

Download on the App Store